Location: ??
(34.9170°N, 135.5016°E)
Time: 10:26:39
(UTC+00:00)

Explorer 7 - Pass Details

Date: 27 February 2021
Orbit: 484 x 677 km, 50.3° (Epoch: 14 April)

Event Time Altitude Azimuth Distance (km) Brightness Sun altitude
Rises 11:26:52 0° 319° (NW) 2,669 11.0 -32.4°
Enters shadow 11:29:13 - 334° (NNW) 1,883 10.0 -32.9°
Reaches altitude 10° 11:29:42 10° 339° (NNW) 1,743 - -33.0°
Maximum altitude 11:32:27 18° 24° (NNE) 1,289 - -33.5°
Drops below altitude 10° 11:35:07 10° 69° (ENE) 1,688 - -34.0°
Sets 11:37:48 0° 89° (E) 2,550 - -34.6°
